Location: Bathurst
(33.4193°S, 149.5775°E)
Time: 19:49:47
(UTC+11:00)

N. Korean satellite - Visible Passes

Search period start: 21 January 2021 00:00
Search period end: 31 January 2021 00:00
Orbit: 453 x 502 km, 97.2° (Epoch: 20 January)

Date Brightness Start Highest point End Pass type
(mag) Time Alt. Az. Time Alt. Az. Time Alt. Az.
21 Jan 8.4 05:20:39 10° NE 05:23:46 33° ESE 05:26:57 10° S visible
22 Jan 9.7 04:55:21 10° ENE 04:57:23 15° ESE 04:59:27 10° SE visible
24 Jan 7.3 05:33:55 10° NNE 05:37:16 55° ESE 05:40:43 10° S visible
25 Jan 9.2 05:08:04 10° NE 05:10:50 23° ESE 05:13:38 10° SSE visible
26 Jan 10.2 04:43:59 10° ESE 04:44:29 10° ESE 04:44:58 10° ESE visible
27 Jan 6.5 05:47:20 10° NNE 05:50:46 89° WNW 05:54:19 10° SSW visible
28 Jan 8.3 05:21:05 10° NE 05:24:16 35° ESE 05:27:31 10° S visible
29 Jan 9.7 04:55:43 10° ENE 04:57:52 16° ESE 05:00:03 10° SSE visible
